Regional Weather Roundup
Issued by NWS Glasgow, MT

Home | Current Version | Previous Version | Text Only | Print | Product List | Glossary On
Versions: 1 2 3 4 5 6 7 8 9 10 11 12 13 14 15 16 17 18 19 20 21 22 23 24 25 26 27
000
ASUS45 KGGW 242015
RWRGGW
HOURLY WEATHER ROUNDUP FOR NORTHEAST MONTANA
NATIONAL WEATHER SERVICE GLASGOW MONTANA
200 PM MDT THU APR 24 2014

NOTE: "FAIR" INDICATES FEW OR NO CLOUDS BELOW 12,000 FEET WITH NO
SIGNIFICANT WEATHER AND/OR OBSTRUCTIONS TO VISISBILITY.

NORTHEAST MONTANA


CITY           SKY/WX    TMP DP  RH WIND       PRES   REMARKS
GLASGOW        MOSUNNY   56  25  30 W12G21    29.72F
PLENTYWOOD       N/A     54  29  38 W20G30      N/A
WOLF POINT     PTSUNNY   59  23  25 W14G23    29.74F
JORDAN           N/A     60  22  23 W18G26    29.74F
WINNETT          N/A     56  25  30 W5          N/A
SIDNEY         MOSUNNY   57  30  35 W14G20    29.75F
GLENDIVE       PTSUNNY   59  27  29 NW16      29.76F
SCOBEY           N/A     55  23  29 W22G28    29.71F

FORT PECK REPORTS


CITY           SKY/WX    TMP DP  RH WIND       PRES   REMARKS
FORT PECK        N/A     60  27  28 W14         N/A
THE PINES        N/A     60  15  17 SW10        N/A

SOUTHEAST MONTANA


CITY           SKY/WX    TMP DP  RH WIND       PRES   REMARKS
BILLINGS       CLOUDY    59  23  25 SW13      29.76F
MILES CITY     CLOUDY    58  23  26 W17G23    29.77F
BAKER          MOSUNNY   58  18  21 NW23G33   29.77F
LIVINGSTON     CLOUDY    51  29  42 SW37G52   29.79F

CENTRAL MONTANA


CITY           SKY/WX    TMP DP  RH WIND       PRES   REMARKS
HAVRE          CLOUDY    56  27  32 SW13      29.71F
LEWISTOWN      CLOUDY    49  29  46 W18G31    29.76S
GREAT FALLS    CLOUDY    55  34  45 SW22G31   29.72F
CUT BANK       CLOUDY    51  29  42 W13       29.69F
HELENA         CLOUDY    53  33  46 SW20      29.77S
BUTTE          CLOUDY    45  31  58 S7        29.83F
BOZEMAN        CLOUDY    50  30  46 W10       29.82F

WESTERN MONTANA


CITY           SKY/WX    TMP DP  RH WIND       PRES   REMARKS
MISSOULA       LGT RAIN  47  42  83 E6        29.84S
KALISPELL      NOT AVBL

NORTH DAKOTA


CITY           SKY/WX    TMP DP  RH WIND       PRES   REMARKS
WILLISTON      PTSUNNY   55  33  43 VRB6      29.72F
DICKINSON      MOSUNNY   60  20  21 W17G29    29.71S
MINOT          PTSUNNY   55  37  50 NW17G26   29.65F
BISMARCK       MOSUNNY   61  19  19 W21G26    29.69F

SOUTHERN SASKATCHEWAN


CITY           SKY/WX    TMP DP  RH WIND       PRES   REMARKS
REGINA         PTSUNNY   48  37  66 W13G18    29.67S
MOOSE JAW      PTSUNNY   52  32  46 W22G29    29.65F
ESTEVAN        CLOUDY    54  36  50 W12       29.70
SWIFT CURRENT  MOSUNNY   54  25  32 W26G33    29.64F




USA.gov is the U.S. government's official web portal to all federal, state and local government web resources and services.